Weather History for South St. Paul, MN

Change the Weather History Date:

Wednesday, October 19, 2011

  Actual Average (KMSP) Record (KMSP)
Temperature  
Mean Temperature 44 °F 48 °F  
Max Temperature 49 °F 57 °F 84 °F (2000)
Min Temperature 40 °F 39 °F 15 °F (1972)
Degree Days  
Heating Degree Days 20 17  
Month to date heating degree days 264  
Since 1 July heating degree days 437  
Cooling Degree Days 0 0  
Month to date cooling degree days 3  
Year to date cooling degree days 750  
Moisture  
Dew Point 32 °F    
Average Humidity 64    
Maximum Humidity 74    
Minimum Humidity 46    
Precipitation  
Precipitation 0.00 in 0.07 in 2.75 in (1934)
Month to date precipitation 1.66  
Year to date precipitation 26.91  
Snow  
Snow 0.00 in 0.00 in 1.30 in (1916)
Month to date snowfall 0.1  
Since 1 July snowfall 0.1  
Since 1 September snowfall 0.1  
Snow Depth -    
Sea Level Pressure  
Sea Level Pressure 30.06 in    
Wind  
Wind Speed 9 mph (North)    
Max Wind Speed 15 mph    
Max Gust Speed 22 mph    
Visibility 10 miles    
Events      
T = Trace of Precipitation, MM = Missing Value Source: NWS Daily Summary

Daily Weather History Graph

Daily Weather History Graph

Search for Another Location

Airport:

Trip Planner

Search our weather history database for the weather conditions in past years. The results will help you decide how hot, cold, wet, or windy it might be!

Date:

Astronomy

Oct. 19, 2011 Rise Set
Actual Time 7:32 AM CDT 6:20 PM CDT
Civil Twilight 7:02 AM CDT 6:50 PM CDT
Nautical Twilight 6:28 AM CDT 7:24 PM CDT
Astronomical Twilight 5:54 AM CDT 7:58 PM CDT
Moon No Moon Rise 2:10 PM CDT (10/19)
Length of Visible Light 11h 47m
Length of Day
10h 48m
Waning Gibbous, 54% of the Moon is Illuminated
Oct 19
Waning Gibbous
Oct 19
Last Quarter
Oct 26
New
Nov 2
First Quarter
Nov 10
Full

Hourly Weather History & Observations

Time (CDT) Temp. Windchill Dew Point Humidity Pressure Visibility Wind Dir Wind Speed Gust Speed Precip Events Conditions
12:14 AM 42.1 °F 36.1 °F 33.4 °F 71% 30.04 in 10.0 mi NNE 10.4 mph - N/A   Overcast
12:33 AM 41.9 °F 36.3 °F 33.8 °F 73% 30.04 in 10.0 mi NNE 9.2 mph - N/A   Overcast
12:54 AM 42.1 °F 37.1 °F 33.8 °F 72% 30.04 in 10.0 mi North 8.1 mph - N/A   Overcast
1:14 AM 42.1 °F 36.1 °F 32.7 °F 69% 30.04 in 10.0 mi North 10.4 mph 17.3 mph N/A   Overcast
1:33 AM 41.9 °F 35.9 °F 32.4 °F 69% 30.04 in 10.0 mi North 10.4 mph - N/A   Overcast
1:54 AM 41.9 °F 36.9 °F 32.4 °F 69% 30.04 in 10.0 mi NNE 8.1 mph - N/A   Overcast
2:14 AM 41.9 °F 35.9 °F 32.0 °F 68% 30.04 in 10.0 mi North 10.4 mph - N/A   Overcast
2:34 AM 41.9 °F 36.3 °F 32.0 °F 68% 30.04 in 10.0 mi North 9.2 mph 16.1 mph N/A   Overcast
2:53 AM 41.5 °F 35.4 °F 31.3 °F 67% 30.04 in 10.0 mi North 10.4 mph - N/A   Overcast
3:14 AM 41.4 °F 35.2 °F 31.1 °F 67% 30.04 in 10.0 mi North 10.4 mph - N/A   Overcast
3:33 AM 41.2 °F 35.5 °F 31.1 °F 67% 30.04 in 10.0 mi North 9.2 mph 16.1 mph N/A   Overcast
3:53 AM 41.2 °F 36.0 °F 30.9 °F 67% 30.04 in 10.0 mi North 8.1 mph - N/A   Overcast
4:14 AM 41.0 °F 35.8 °F 30.9 °F 67% 30.04 in 10.0 mi North 8.1 mph - N/A   Overcast
4:34 AM 40.8 °F 35.6 °F 31.1 °F 68% 30.04 in 10.0 mi North 8.1 mph - N/A   Overcast
5:13 AM 41.0 °F 35.2 °F 31.5 °F 69% 30.05 in 10.0 mi North 9.2 mph - N/A   Overcast
5:34 AM 41.0 °F 36.4 °F 31.6 °F 69% 30.06 in 10.0 mi North 6.9 mph - N/A   Overcast
5:53 AM 40.8 °F 35.6 °F 32.0 °F 71% 30.06 in 10.0 mi NNE 8.1 mph - N/A   Overcast
6:33 AM 40.6 °F 35.4 °F 32.0 °F 71% 30.07 in 10.0 mi NNE 8.1 mph - N/A   Overcast
6:54 AM 40.6 °F 34.8 °F 32.0 °F 71% 30.07 in 10.0 mi NNE 9.2 mph - N/A   Overcast
7:33 AM 40.6 °F 36.7 °F 32.5 °F 73% 30.08 in 10.0 mi North 5.8 mph - N/A   Overcast
7:54 AM 40.6 °F 35.4 °F 32.9 °F 74% 30.08 in 10.0 mi North 8.1 mph - N/A   Overcast
8:14 AM 41.0 °F 34.7 °F 32.9 °F 73% 30.09 in 10.0 mi NNE 10.4 mph - N/A   Overcast
8:34 AM 41.0 °F 35.2 °F 33.1 °F 73% 30.10 in 10.0 mi North 9.2 mph - N/A   Overcast
8:53 AM 41.0 °F 35.2 °F 33.3 °F 74% 30.10 in 10.0 mi North 9.2 mph - N/A   Overcast
9:14 AM 41.2 °F 37.3 °F 33.4 °F 74% 30.10 in 10.0 mi North 5.8 mph - N/A   Overcast
9:53 AM 41.7 °F 35.2 °F 33.8 °F 73% 30.10 in 10.0 mi NNE 11.5 mph - N/A   Overcast
10:14 AM 42.3 °F 35.9 °F 33.8 °F 72% 30.10 in 10.0 mi NNE 11.5 mph 17.3 mph N/A   Overcast
10:34 AM 42.8 °F 37.0 °F 33.6 °F 70% 30.11 in 10.0 mi North 10.4 mph - N/A   Overcast
11:14 AM 42.8 °F 37.0 °F 33.6 °F 70% 30.10 in 10.0 mi NNE 10.4 mph - N/A   Overcast
11:54 AM 43.2 °F 38.4 °F 33.1 °F 68% 30.10 in 10.0 mi NNE 8.1 mph - N/A   Overcast
12:13 PM 43.7 °F 38.6 °F 32.9 °F 66% 30.10 in 10.0 mi NNE 9.2 mph - N/A   Overcast
12:34 PM 44.2 °F 38.8 °F 32.7 °F 64% 30.10 in 10.0 mi North 10.4 mph - N/A   Overcast
12:54 PM 44.2 °F 39.7 °F 32.0 °F 62% 30.10 in 10.0 mi NNE 8.1 mph - N/A   Overcast
1:13 PM 44.6 °F 40.7 °F 32.5 °F 63% 30.09 in 10.0 mi North 6.9 mph - N/A   Overcast
1:34 PM 44.8 °F 39.4 °F 32.0 °F 61% 30.08 in 10.0 mi NNE 10.4 mph - N/A   Overcast
1:54 PM 45.3 °F 41.1 °F 32.2 °F 60% 30.08 in 10.0 mi North 8.1 mph - N/A   Overcast
2:14 PM 46.0 °F 41.4 °F 32.0 °F 58% 30.07 in 10.0 mi North 9.2 mph - N/A   Overcast
2:54 PM 48.0 °F - 32.5 °F 55% 30.06 in 10.0 mi North 11.5 mph - N/A   Mostly Cloudy
3:14 PM 46.6 °F - 32.0 °F 57% 30.05 in 10.0 mi North 11.5 mph - N/A   Mostly Cloudy
3:54 PM 48.0 °F - 31.8 °F 54% 30.05 in 10.0 mi North 12.7 mph - N/A   Scattered Clouds
4:13 PM 49.3 °F - 31.3 °F 50% 30.04 in 10.0 mi North 15.0 mph 20.7 mph N/A   Scattered Clouds
4:34 PM 48.4 °F - 30.2 °F 49% 30.04 in 10.0 mi North 12.7 mph 21.9 mph N/A   Mostly Cloudy
4:54 PM 47.7 °F - 29.8 °F 50% 30.04 in 10.0 mi North 11.5 mph 19.6 mph N/A   Mostly Cloudy
5:14 PM 48.4 °F - 28.9 °F 47% 30.04 in 10.0 mi North 12.7 mph 16.1 mph N/A   Mostly Cloudy
5:34 PM 48.2 °F - 28.2 °F 46% 30.04 in 10.0 mi North 12.7 mph 21.9 mph N/A   Overcast
5:54 PM 47.5 °F - 28.9 °F 49% 30.05 in 10.0 mi North 11.5 mph 18.4 mph N/A   Overcast
6:13 PM 47.3 °F - 28.6 °F 48% 30.05 in 10.0 mi North 8.1 mph 18.4 mph N/A   Mostly Cloudy
6:34 PM 46.9 °F - 28.4 °F 49% 30.06 in 10.0 mi NNE 10.4 mph - N/A   Mostly Cloudy
6:54 PM 46.0 °F 41.0 °F 28.6 °F 51% 30.07 in 10.0 mi NNE 10.4 mph - N/A   Mostly Cloudy
7:14 PM 45.5 °F 40.8 °F 29.1 °F 53% 30.06 in 10.0 mi NNE 9.2 mph - N/A   Scattered Clouds
7:34 PM 44.4 °F 40.0 °F 29.1 °F 55% 30.06 in 10.0 mi North 8.1 mph - N/A   Clear
7:53 PM 44.1 °F 40.1 °F 29.5 °F 57% 30.06 in 10.0 mi North 6.9 mph - N/A   Clear
8:14 PM 43.3 °F 39.9 °F 29.5 °F 58% 30.06 in 10.0 mi North 5.8 mph - N/A   Clear
8:33 PM 43.7 °F 38.6 °F 30.0 °F 59% 30.06 in 10.0 mi NNE 9.2 mph - N/A   Clear
8:54 PM 43.0 °F 38.8 °F 30.2 °F 61% 30.05 in 10.0 mi North 6.9 mph - N/A   Clear
9:14 PM 42.3 °F 38.6 °F 30.6 °F 63% 30.05 in 10.0 mi North 5.8 mph - N/A   Clear
9:33 PM 42.3 °F 37.9 °F 31.1 °F 65% 30.05 in 10.0 mi North 6.9 mph - N/A   Clear
9:54 PM 42.3 °F 37.3 °F 31.5 °F 66% 30.05 in 10.0 mi North 8.1 mph - N/A   Clear
10:14 PM 41.7 °F 38.0 °F 31.5 °F 67% 30.05 in 10.0 mi North 5.8 mph - N/A   Clear
10:34 PM 41.2 °F 36.6 °F 31.6 °F 69% 30.04 in 10.0 mi North 6.9 mph - N/A   Clear
10:53 PM 41.5 °F 35.9 °F 32.0 °F 69% 30.04 in 10.0 mi North 9.2 mph - N/A   Scattered Clouds
11:14 PM 41.0 °F 36.4 °F 32.0 °F 70% 30.03 in 10.0 mi North 6.9 mph - N/A   Mostly Cloudy
11:34 PM 41.4 °F 35.7 °F 32.0 °F 69% 30.02 in 10.0 mi North 9.2 mph - N/A   Mostly Cloudy
11:53 PM 40.6 °F 34.8 °F 32.0 °F 71% 30.02 in 10.0 mi North 9.2 mph - N/A   Scattered Clouds